Skip Navigation Linkswww.weather.gov 
NOAA logo - Click to go to the NOAA homepage National Weather Service Forecast Office   NWS logo - Click to go to the NWS homepage    
Los Angeles, California
navigation bar decoration      
spacer
Printer Friendly  |   Go Back  |  Version: Current   1   2   3   4   5   6   7   8   9   10   |  Font:  A A A  |  

HOURLY WEATHER ROUNDUP
That Version is not available. Latest version shown.
 
 ASUS46 KSTO 020009
RWRCA

NORTHERN AND CENTRAL CA REGIONAL WEATHER ROUNDUP
NATIONAL WEATHER SERVICE SACRAMENTO CA
500 PM PDT WED APR 01 2015

NOTE: FAIR INDICATES FEW OR NO CLOUDS BELOW 12,000 FEET WITH NO
SIGNIFICANT WEATHER AND/OR OBSTRUCTIONS TO VISIBILITY.

CAZ001-003-020100-
NORTHWEST AREA

CITY SKY/WX TMP DP RH WIND PRES REMARKS
CRESCENT CITY SUNNY 54 44 69 NW29G38 30.28S
ARCATA NOT AVBL
SHELTER COVE NOT AVBL
UKIAH SUNNY 63 36 36 W15G23 30.08F
$$

CAZ006-505>513-020100-
BAY AREA

CITY SKY/WX TMP DP RH WIND PRES REMARKS
SANTA ROSA MOSUNNY 69 32 25 NW8 30.04F
SAN RAFAEL N/A 60 MM MM MISG
NAPA SUNNY 63 41 44 W17 30.06F
CONCORD SUNNY 66 37 34 W15 30.06F
OAKLAND CITY N/A 65 MM MM MISG
OAKLAND MOSUNNY 63 41 44 W21 30.09F
SAN FRAN CITY N/A 58 MM 57 MISG
SAN FRAN ARPT MOSUNNY 60 45 57 W24G32 30.11F
LIVERMORE SUNNY 65 40 39 W14 30.07F
HAYWARD SUNNY 63 45 51 W17G23 30.09F
REDWOOD CITY N/A MM MM MM MISG
MOFFETT ARPT SUNNY 62 39 42 NW13G20 30.10F
SAN JOSE ARPT MOSUNNY 62 40 44 NW22G28 30.09F
$$
CAZ034-037-514>518-020100-
CENTRAL COAST

CITY SKY/WX TMP DP RH WIND PRES REMARKS
WATSONVILLE SUNNY 69 35 28 W12G22 30.07F
SALINAS SUNNY 63 43 48 W16 30.10F
MONTEREY SUNNY 57 45 64 W20G28 30.12F
PT PIEDRAS BLS NOT AVBL
SAN LUIS OBISP SUNNY 60 41 49 NW28G38 30.01F
SANTA MARIA SUNNY 62 42 47 W31G38 29.99S
$$
CAZ015-016-020100-
NORTHERN SACRAMENTO VALLEY

CITY SKY/WX TMP DP RH WIND PRES REMARKS
REDDING SUNNY 70 19 14 N10G20 30.03S
RED BLUFF SUNNY 71 20 14 N18G24 30.03F
OROVILLE SUNNY 69 22 16 W7 30.02F
$$
CAZ016>018-020100-
SOUTHERN SACRAMENTO VALLEY

CITY SKY/WX TMP DP RH WIND PRES REMARKS
AUBURN SUNNY 63 27 25 W6 30.05F
BEALE AFB SUNNY 71 23 16 W6 30.00F
LINCOLN FAIR 70 21 16 W5 30.02F
MARYSVILLE SUNNY 70 23 17 N9 30.02F
SAC INTL ARPT MOSUNNY 69 22 16 W9 30.02F
MATHER AIRPORT SUNNY N/A N/A N/A N3 30.03F
DOWNTOWN SAC N/A 71 MM MM MISG
SAC EXEC ARPT SUNNY 70 24 17 VRB6G16 30.03F
VACAVILLE SUNNY 70 33 25 NW5 30.05F
TRAVIS AFB SUNNY 67 41 39 SW15 30.03F
$$
CAZ019>021-020100-
SAN JOAQUIN VALLEY

CITY SKY/WX TMP DP RH WIND PRES REMARKS
STOCKTON MOSUNNY 69 26 20 NW9 30.04F
MODESTO PTSUNNY 69 25 19 NW16 30.03F
MERCED MOSUNNY 69 24 18 N14 30.02F
LEMOORE PTSUNNY 73 22 14 N15 30.00F
FRESNO PTSUNNY 71 24 17 W16 30.00F
HANFORD MOSUNNY 75 28 17 N15 29.99F
PORTERVILLE SUNNY 70 34 26 SW5 29.99F
BAKERSFIELD SUNNY 71 25 17 W10 29.99F
$$
CAZ011-012-071-020100-
NORTHERN MOUNTAINS

CITY SKY/WX TMP DP RH WIND PRES REMARKS
YREKA SUNNY 55 21 26 NW18G25 30.16F
MOUNT SHASTA MOSUNNY 50 20 30 VRB7 30.12S
ALTURAS CLOUDY 50 18 28 VRB5 30.08F
$$
CAZ011-012-071-020100-
SIERRA NEVADA MTNS

CITY SKY/WX TMP DP RH WIND PRES REMARKS
BLUE CANYON SUNNY 46 18 32 SW7 30.07S
TRUCKEE PTSUNNY 48 12 23 W17 30.02S
TAHOE VLY ARPT PTSUNNY 47 19 33 S13G25 30.01S
MAMMOTH LAKES FAIR 50 -2 11 W21G30 29.99F
$$



Webmaster
US Dept of Commerce
National Oceanic and Atmospheric Administration
National Weather Service
Los Angeles/Oxnard Weather Forecast Office
520 North Elevar Street
Oxnard, CA 93030

Tel: (805) 988-6610

Disclaimer
Information Quality
Credits
Glossary
Organization
Privacy Policy
Freedom of Information Act
About Us
Career Opportunities